Wind_Speed
64 64 65 66 70 70 70 71 71 68 70 71 72 72 75 75 78 78 79 80 82 84 83 84 85 85 84 84 83 84 86 87 85 85 82 80 79 77 75 75 75 75 76
59 59 61 63 65 66 66 67 65 64 64 66 61 63 63 63 65 68 70 72 73 75 74 76 77 77 78 80 80 80 84 85 84 84 84 83 82 81 81 80 79 77 73
54 55 57 60 62 63 64 64 64 61 60 57 53 51 50 50 51 53 56 57 59 62 64 65 65 67 70 72 72 73 73 74 72 71 70 71 76 76 71 69 67 66 66
50 52 52 51 54 58 60 60 60 56 56 58 45 42 40 41 44 42 38 39 37 19 14 26 37 45 49 53 60 65 66 64 63 61 61 61 62 58 56 58 57 57 57
49 52 52 52 53 53 54 53 53 52 51 50 40 36 35 34 33 27 24 21 14 9 8 14 20 26 31 38 41 44 48 52 52 53 51 52 51 50 46 48 50 48 48
46 49 51 50 50 51 49 49 46 46 44 39 31 31 28 19 15 17 16 13 11 10 13 20 21 22 24 27 29 32 32 34 35 39 36 36 36 37 41 41 38 38 40
45 48 49 47 44 45 44 42 41 35 31 29 23 22 24 25 21 20 17 9 4 8 15 20 22 20 21 20 21 23 25 27 25 25 30 31 30 34 36 35 37 40 43
45 43 43 41 40 38 37 36 34 27 32 29 33 29 35 34 22 20 20 15 9 9 13 23 18 19 16 18 21 24 21 20 25 24 30 33 32 33 33 28 29 29 27
43 43 39 34 32 30 28 26 22 23 35 34 41 47 46 35 27 29 21 16 16 17 16 18 14 18 19 21 22 20 18 19 14 34 35 37 36 33 34 33 17 21 14
41 41 36 30 29 27 27 13 11 19 27 40 60 50 49 39 32 27 37 31 19 15 12 20 14 17 24 26 26 21 14 14 29 35 36 35 32 32 36 32 17 11 15
40 37 34 30 28 22 24 8 18 32 37 53 58 58 57 48 46 46 43 26 20 11 14 20 19 22 21 24 15 10 21 32 34 39 34 29 21 13 18 14 16 16 12
41 38 36 26 27 26 20 10 21 40 43 61 63 61 53 46 54 49 42 27 15 13 17 24 19 25 21 15 13 30 32 32 27 19 15 16 20 19 15 11 14 15 13
40 39 37 30 26 24 19 7 23 38 42 64 63 63 56 51 49 44 32 22 16 19 20 22 21 25 19 25 34 27 25 21 16 15 18 24 19 21 7 10 11 12 15
37 39 35 37 25 26 18 12 17 27 40 64 62 55 50 43 43 38 27 24 19 15 21 22 23 29 32 36 30 29 25 24 17 16 18 18 24 19 18 16 15 19 22
32 35 36 36 29 24 17 19 14 27 40 57 49 48 47 41 34 35 30 24 19 19 21 22 17 24 30 33 31 27 29 24 12 16 22 21 23 23 24 19 21 25 24
28 32 37 34 31 24 19 21 19 34 42 46 46 46 45 41 36 44 30 26 21 19 17 21 20 24 29 33 30 30 28 27 13 17 18 19 22 19 22 24 25 28 32
26 29 36 36 29 24 24 23 27 42 42 39 38 41 42 39 37 40 41 26 19 17 14 20 26 30 30 35 36 38 34 28 22 24 21 24 25 27 29 30 30 34 37
26 27 33 35 31 24 23 28 27 41 45 38 37 39 41 43 40 38 29 20 18 14 16 22 28 30 28 34 35 35 34 32 30 30 32 33 34 39 40 37 37 38 39
25 25 31 34 32 24 28 30 33 36 41 40 39 40 51 43 40 29 26 21 17 20 19 21 26 33 36 40 33 26 30 35 38 36 36 38 43 42 43 42 41 44 45
25 26 30 35 31 25 29 32 33 37 37 36 38 36 46 50 45 48 31 19 13 16 19 22 28 27 34 40 30 29 30 36 36 38 38 41 43 44 46 46 47 52 52
25 26 30 34 30 28 27 34 35 38 44 35 35 37 41 44 43 46 44 37 35 22 23 23 26 25 30 30 30 32 34 36 38 40 44 47 46 47 51 51 52 56 60
25 26 30 34 30 29 22 36 35 39 42 37 41 38 41 41 44 51 50 40 42 44 34 31 32 31 29 28 31 34 37 40 40 42 47 47 51 55 57 59 60 63 64
24 26 29 31 30 33 20 35 37 42 43 42 46 46 48 46 46 51 53 49 51 46 41 45 44 41 41 37 38 38 40 42 44 48 49 51 54 55 60 63 67 67 71
24 24 27 28 30 30 22 36 40 40 46 45 47 54 49 55 55 50 57 60 50 45 45 47 44 46 47 45 48 47 48 50 52 53 56 53 56 56 60 67 69 73 75
24 22 25 25 27 27 22 33 40 39 41 47 50 53 53 53 49 47 46 45 45 48 50 53 52 51 51 53 54 54 56 54 55 56 57 59 61 61 65 72 74 77 76
23 20 23 20 23 23 20 24 44 40 40 43 52 57 56 60 60 57 50 46 47 47 50 53 56 56 59 59 58 59 58 56 57 59 59 59 65 67 69 73 74 76 77
Wind_Direction
277 275 273 271 270 270 269 268 266 264 261 258 257 256 256 256 255 253 253 254 255 254 255 256 255 255 255 255 257 259 260 260 262 264 266 267 269 272 272 271 272 274 276
277 276 275 274 273 271 270 268 267 265 262 260 260 257 256 256 257 257 258 258 259 259 259 258 257 258 258 258 258 259 259 260 262 264 266 267 270 272 273 274 275 278 282
278 276 275 275 276 275 272 270 269 266 264 261 258 258 255 256 255 252 254 256 258 260 260 259 260 260 258 256 258 258 259 261 263 264 267 268 268 270 275 274 277 278 280
285 283 281 282 280 276 272 269 268 266 264 264 256 258 254 249 249 251 251 253 257 245 258 263 258 257 260 260 259 258 259 262 264 265 266 267 268 269 273 276 276 278 282
297 296 293 289 284 279 276 272 267 261 255 255 250 246 253 252 248 245 239 208 205 230 276 298 278 257 256 256 255 255 257 257 259 262 265 268 271 271 272 271 273 275 276
300 299 297 290 286 281 276 273 266 256 246 251 244 244 246 231 211 190 186 202 231 281 287 289 298 261 255 258 252 250 246 247 253 257 261 258 263 261 266 266 264 263 275
305 306 300 296 291 286 281 277 269 253 238 222 214 230 210 176 179 204 205 209 232 270 277 297 286 262 254 251 241 236 237 238 239 243 247 249 251 257 260 263 266 266 267
313 310 306 301 296 293 289 277 264 240 219 208 174 214 173 180 189 205 236 224 217 248 280 305 274 256 231 225 223 224 221 236 238 255 259 255 259 259 267 269 272 268 266
319 319 311 310 301 293 291 277 249 215 206 199 182 175 181 192 193 229 230 233 243 267 286 307 285 255 210 198 210 219 227 238 236 241 254 267 262 255 260 272 254 275 226
322 326 310 310 305 318 298 276 220 206 203 189 174 193 186 188 193 221 230 229 236 281 289 305 313 230 207 222 209 222 246 276 251 269 264 263 264 262 261 267 227 222 242
317 319 307 305 311 315 299 227 200 181 198 190 193 180 187 194 193 197 214 222 257 291 308 317 310 215 221 223 225 273 253 247 260 261 265 259 255 205 175 178 212 233 247
311 320 320 298 303 300 300 263 205 186 197 186 192 180 184 191 197 206 214 219 251 270 289 299 269 217 213 199 217 227 239 253 253 238 216 191 171 164 176 231 246 241 267
313 323 315 311 294 298 285 270 233 212 200 192 187 189 192 202 198 209 209 207 247 280 285 294 278 197 199 219 223 236 247 201 190 186 186 185 176 179 270 254 267 286 297
314 319 313 317 284 293 286 250 250 237 209 194 198 197 199 203 199 200 220 228 244 283 283 300 270 216 209 222 222 241 204 189 193 203 205 213 210 228 267 294 290 291 297
310 315 317 306 301 281 273 245 254 221 210 195 196 197 200 193 190 204 223 237 255 280 288 277 247 222 213 218 229 206 198 204 224 254 251 227 226 251 255 265 278 288 302
304 312 315 309 307 274 265 249 235 210 193 199 206 202 208 194 208 220 238 242 268 273 286 272 231 218 218 222 213 195 204 212 243 277 268 255 261 272 266 286 289 296 299
296 311 318 309 306 270 253 239 214 197 194 196 207 211 202 203 213 213 233 244 255 277 279 232 223 217 219 224 203 203 213 222 253 261 279 286 287 287 286 290 294 293 300
293 307 315 310 309 278 257 234 214 206 204 219 216 209 196 197 216 217 233 260 249 271 261 255 247 236 216 214 219 215 224 231 250 274 278 283 288 293 296 295 297 297 296
289 305 308 307 308 292 249 229 220 209 210 211 217 221 210 219 220 220 235 249 244 256 242 254 254 241 224 218 216 225 232 239 250 270 275 288 293 290 300 297 297 297 300
282 297 306 308 305 311 247 222 224 214 217 227 223 227 218 225 229 228 228 232 238 246 250 261 243 231 223 220 234 236 246 254 254 267 281 288 292 293 300 296 296 297 298
277 293 301 306 306 305 248 229 214 220 219 214 222 218 221 214 221 222 225 238 247 245 263 246 226 222 222 231 240 241 252 254 260 261 281 286 291 291 295 296 297 298 298
274 291 302 303 307 309 253 228 213 212 219 213 206 210 204 202 215 223 219 237 250 252 249 245 239 246 244 240 246 248 253 254 259 266 276 285 292 294 296 296 297 294 292
270 288 301 302 310 308 270 224 214 210 211 216 209 198 207 199 220 231 232 240 245 254 247 248 252 246 253 256 256 257 257 265 276 282 280 284 292 292 292 292 292 290 289
268 283 296 300 308 308 286 219 213 211 211 213 214 207 209 216 221 231 234 239 251 256 255 250 251 251 253 255 260 265 269 274 276 281 284 283 286 287 287 289 291 292 292
261 278 289 294 305 302 294 227 218 214 212 216 215 217 217 219 223 228 231 244 246 250 254 248 252 257 257 258 259 263 269 273 276 278 283 283 285 288 288 286 289 292 295
256 270 282 288 303 303 301 243 219 215 216 217 217 218 218 220 225 230 244 250 248 250 253 254 256 253 257 259 263 264 270 271 276 279 283 283 281 282 284 285 289 293 297
Height
10775 10772 10770 10766 10764 10764 10763 10762 10764 10765 10765 10765 10767 10771 10774 10779 10783 10786 10785 10785 10787 10790 10795 10798 10801 10804 10808 10810 10813 10814 10815 10815 10817 10818 10819 10821 10823 10824 10825 10825 10825 10825 10825
10761 10759 10755 10752 10748 10748 10749 10748 10748 10751 10750 10751 10755 10757 10761 10763 10769 10773 10774 10774 10774 10778 10784 10787 10788 10790 10795 10800 10801 10802 10803 10805 10809 10810 10811 10812 10812 10813 10813 10815 10815 10815 10815
10750 10748 10744 10740 10737 10735 10735 10733 10732 10734 10734 10740 10741 10746 10749 10752 10756 10759 10763 10765 10766 10768 10769 10773 10775 10779 10780 10785 10785 10788 10790 10793 10798 10799 10802 10802 10803 10805 10805 10806 10806 10806 10807
10738 10734 10732 10731 10725 10721 10718 10720 10717 10720 10720 10720 10732 10736 10739 10741 10744 10749 10753 10755 10760 10762 10762 10764 10764 10766 10770 10772 10773 10776 10780 10785 10786 10788 10791 10793 10795 10797 10797 10798 10799 10800 10799
10724 10720 10718 10716 10711 10708 10704 10704 10705 10705 10707 10711 10721 10728 10731 10734 10737 10741 10745 10748 10752 10754 10756 10757 10757 10759 10761 10761 10763 10766 10771 10773 10775 10779 10783 10784 10786 10789 10790 10790 10791 10791 10791
10720 10713 10707 10703 10698 10694 10691 10690 10690 10691 10695 10703 10714 10722 10725 10729 10732 10737 10740 10743 10747 10748 10749 10750 10752 10752 10753 10753 10756 10759 10761 10763 10769 10772 10775 10777 10779 10780 10781 10783 10784 10782 10784
10712 10706 10698 10692 10686 10681 10680 10678 10677 10680 10687 10695 10708 10716 10720 10724 10729 10732 10734 10737 10740 10743 10745 10745 10744 10744 10745 10747 10749 10752 10756 10760 10763 10767 10770 10770 10771 10772 10775 10775 10777 10777 10781
10705 10698 10689 10683 10676 10672 10669 10666 10668 10673 10680 10687 10696 10709 10714 10715 10718 10722 10728 10731 10735 10737 10739 10740 10737 10739 10739 10743 10745 10748 10755 10757 10759 10762 10763 10764 10765 10766 10768 10769 10771 10774 10774
10698 10689 10682 10677 10670 10666 10663 10660 10661 10667 10672 10680 10685 10695 10705 10705 10709 10716 10720 10725 10729 10733 10734 10735 10733 10734 10735 10739 10742 10747 10750 10753 10755 10758 10759 10759 10758 10759 10763 10764 10766 10770 10771
10692 10685 10677 10674 10667 10664 10659 10657 10663 10668 10675 10679 10678 10681 10691 10697 10704 10708 10712 10719 10726 10730 10730 10731 10728 10730 10734 10735 10738 10742 10745 10746 10751 10752 10753 10753 10754 10755 10758 10760 10762 10764 10766
10686 10683 10676 10670 10665 10661 10658 10658 10658 10660 10667 10671 10675 10678 10685 10691 10697 10704 10706 10718 10725 10726 10727 10725 10725 10727 10731 10730 10732 10737 10744 10745 10747 10746 10747 10748 10749 10751 10753 10757 10760 10761 10761
10678 10676 10670 10667 10663 10659 10658 10656 10656 10656 10659 10666 10672 10679 10683 10689 10692 10696 10708 10715 10720 10722 10722 10722 10721 10724 10726 10726 10730 10739 10740 10742 10742 10742 10744 10745 10747 10750 10752 10754 10756 10757 10756
10672 10668 10663 10661 10659 10657 10655 10654 10655 10656 10657 10664 10671 10676 10680 10685 10689 10696 10706 10710 10716 10720 10720 10719 10717 10720 10723 10727 10731 10735 10737 10738 10739 10741 10743 10744 10746 10747 10749 10751 10751 10749 10749
10667 10663 10659 10655 10655 10653 10651 10651 10652 10653 10657 10664 10669 10675 10680 10684 10692 10698 10703 10709 10714 10716 10716 10717 10715 10716 10719 10722 10727 10731 10734 10735 10737 10740 10742 10745 10746 10746 10746 10746 10746 10745 10744
10665 10659 10655 10651 10650 10649 10647 10649 10650 10651 10655 10662 10670 10676 10680 10686 10693 10697 10700 10704 10709 10710 10712 10710 10710 10713 10717 10719 10723 10727 10730 10733 10736 10738 10740 10742 10743 10744 10744 10742 10741 10740 10738
10661 10656 10651 10646 10645 10645 10645 10645 10649 10650 10655 10663 10669 10675 10680 10685 10689 10691 10695 10701 10705 10708 10708 10706 10707 10710 10715 10715 10720 10724 10726 10729 10731 10735 10737 10737 10737 10737 10738 10736 10735 10734 10732
10656 10651 10646 10641 10640 10639 10640 10641 10646 10650 10656 10662 10668 10674 10678 10683 10686 10693 10695 10699 10700 10703 10703 10704 10706 10708 10710 10711 10717 10718 10722 10726 10727 10730 10731 10731 10731 10731 10730 10730 10728 10727 10724
10648 10646 10642 10636 10634 10633 10635 10638 10642 10647 10654 10658 10664 10671 10674 10678 10683 10687 10691 10694 10694 10697 10698 10702 10705 10709 10708 10707 10715 10717 10719 10721 10723 10724 10725 10725 10725 10725 10723 10721 10720 10718 10716
10640 10639 10638 10633 10630 10628 10630 10633 10638 10642 10648 10651 10660 10666 10670 10674 10679 10684 10689 10690 10691 10693 10696 10699 10702 10706 10706 10707 10709 10712 10714 10716 10718 10719 10719 10719 10718 10718 10715 10713 10712 10710 10707
10632 10632 10631 10628 10625 10623 10623 10626 10631 10636 10641 10646 10654 10659 10664 10670 10674 10680 10685 10685 10685 10690 10694 10697 10699 10700 10702 10704 10705 10707 10710 10711 10711 10712 10712 10712 10711 10709 10707 10706 10703 10701 10698
10624 10624 10624 10622 10618 10616 10616 10619 10624 10631 10636 10642 10648 10653 10661 10663 10670 10674 10679 10679 10683 10687 10690 10696 10695 10696 10697 10699 10702 10699 10702 10703 10705 10703 10703 10702 10701 10699 10699 10696 10693 10690 10687
10618 10617 10617 10615 10612 10609 10609 10613 10618 10624 10630 10637 10643 10648 10655 10660 10666 10669 10673 10676 10678 10683 10688 10690 10691 10692 10694 10695 10696 10696 10695 10694 10696 10697 10694 10693 10691 10688 10686 10684 10681 10678 10675
10611 10611 10611 10608 10606 10602 10601 10606 10611 10618 10625 10630 10638 10643 10650 10656 10661 10663 10667 10671 10673 10675 10680 10683 10684 10685 10686 10688 10688 10688 10688 10688 10687 10684 10683 10683 10682 10679 10676 10671 10669 10666 10662
10604 10605 10605 10603 10600 10597 10594 10599 10605 10612 10618 10624 10631 10638 10643 10648 10653 10656 10661 10664 10666 10667 10670 10673 10674 10674 10677 10678 10678 10679 10679 10680 10679 10677 10674 10670 10668 10669 10667 10662 10658 10654 10651
10597 10598 10598 10597 10596 10593 10590 10591 10597 10604 10610 10617 10623 10630 10636 10640 10646 10650 10653 10655 10659 10659 10662 10664 10664 10666 10667 10668 10669 10670 10670 10671 10668 10666 10664 10662 10657 10656 10653 10647 10643 10639 10636
10591 10591 10591 10591 10591 10588 10586 10585 10590 10596 10603 10610 10615 10621 10627 10633 10638 10642 10644 10646 10648 10650 10653 10654 10654 10658 10657 10657 10659 10660 10661 10659 10657 10655 10653 10652 10648 10646 10643 10636 10631 10628 10622